Regional Weather Roundup
Issued by NWS

Home | Current Version | Previous Version | Graphics & Text | Print | Product List | Glossary On
Versions: 1 2 3 4 5 6 7 8 9 10 11 12 13 14 15 16 17 18 19 20 21 22 23 24 25 26 27 28 29 30 31 32 33 34 35 36 37 38 39 40 41 42 43 44 45 46 47 48 49 50
000
ASUS43 KFSD 271910
RWRSD

WEATHER ROUNDUP FOR SOUTH DAKOTA
NATIONAL WEATHER SERVICE SIOUX FALLS SD
200 PM CDT MON APR 27 2015

NOTE: "FAIR" INDICATES FEW OR NO CLOUDS BELOW 12,000 FEET WITH NO
SIGNIFICANT WEATHER AND/OR OBSTRUCTIONS TO VISIBILITY.


SDZ001>005-009-010-012>017-272000-
NORTHWEST AND NORTH CENTRAL SOUTH DAKOTA

CITY           SKY/WX    TMP DP  RH WIND       PRES   REMARKS
BUFFALO          N/A     44  37  76 NW15      30.26F
FAITH            N/A     48  40  73 NW18      30.29S
MOBRIDGE       MOSUNNY   63  45  51 NW18      30.22R
$$

SDZ012>016-024>037-041>051-057-063-072>074-272000-
SOUTHWEST AND SOUTH CENTRAL SOUTH DAKOTA

CITY           SKY/WX    TMP DP  RH WIND       PRES   REMARKS
RAPID CTY ARPT CLOUDY    46  39  76 N23G30    30.31R
PIERRE         SUNNY     68  31  25 NW7       30.20F
CUSTER         CLOUDY    41  39  93 W5        30.29S FOG
ELLSWORTH AFB  CLOUDY    45  39  81 N22       30.30
PHILIP         PTSUNNY   59  43  55 NW20G26   30.27S
PINE RIDGE     MOSUNNY   56  43  61 N9G16     30.28F
SPEARFISH      LGT RAIN  41  39  93 NW9       30.35S
WINNER         FAIR      69  29  22 NW9       30.21F
$$

SDZ004>011-016>023-039-040-272000-
NORTHEAST SOUTH DAKOTA

CITY           SKY/WX    TMP DP  RH WIND       PRES   REMARKS
ABERDEEN       SUNNY     69  23  17 NE6       30.20F
WATERTOWN      NOT AVBL
SISSETON         N/A     69  21  16 VRB5      30.19F
$$

SDZ017-020-022-023-036>040-048>070-272000-
SOUTHEAST SOUTH DAKOTA

CITY           SKY/WX    TMP DP  RH WIND       PRES   REMARKS
SIOUX FALLS    PTSUNNY   66  24  20 VRB3      30.20F
HURON          SUNNY     69  23  17 N7        30.20F
CHAMBERLAIN    SUNNY     66  31  26 N7        30.21F
MITCHELL       SUNNY     68  27  21 NE9       30.21F
YANKTON        SUNNY     64  30  27 CALM      30.19F
$$

ABBREVIATIONS USED IN REMARKS
   TC - TEMPERATURE IN CELSIUS
  WCI - WIND CHILL INDEX
   HX - HEAT INDEX
  VSB - VISIBILITY




USA.gov is the U.S. government's official web portal to all federal, state and local government web resources and services.